Flag for U.S.A. Weather past 2 weeks in Manassas, Virginia, U.S.A.

Now
36 °F

Clear.


Feels Like: 36 °F
Forecast: 36 / 64 °F
Wind: No wind

Location: Manassas Municipal

Current Time: Mar 31, 2015 at 4:30:52 AM

Latest Report: Mar 31, 2015 at 3:55 AM


Visibility: 10 mi

Pressure: 29.93 "Hg

Humidity: 75%

Dew point: 28 °F

Location of ManassasLocation

Historic Weather in Manassas — Graph

°F

Manassas temperature yesterday

Maximum temperature yesterday: 63 °F (at 2:55 PM)
Minimum temperature yesterday: 37 °F (at 11:15 PM)
Average temperature yesterday: 47 °F

Past Weeks' High & Low Weather Summary

 TemperatureHumidityPressure
High75 °F (Mar 26, 4:45 PM)100% (Mar 16, 3:15 AM)30.43 "Hg (Mar 16, 3:15 AM)
Low21 °F (Mar 29, 6:15 AM)15% (Mar 29, 4:50 PM)29.60 "Hg (Mar 26, 5:45 PM)
Average41 °F63%30.09 "Hg
* Reported Mar 16 3:15 AM — Mar 31 3:35 AM, Manassas, Weather by CustomWeather, © 2015

Note: Actual official high and low records may vary slightly from our data, if they occured in-between our weather recording intervals... More about our weather records

Advertising

Manassas weather history for previous 24 hours

 ConditionsComfort  
Time TempWeatherWind HumidityBarometerVisibility
3:35 AM
Tue, Mar 31
36 °FClear.No wind81%29.94 "Hg10 mi
3:15 AM36 °FClear.5 mph75%29.94 "Hg10 mi
2:55 AM34 °FClear.5 mph87%29.95 "Hg10 mi
2:35 AM34 °FClear.No wind87%29.95 "Hg10 mi
2:15 AM34 °FClear.No wind87%29.96 "Hg10 mi
1:55 AM34 °FClear.No wind87%29.96 "Hg10 mi
1:35 AM36 °FClear.3 mph81%29.96 "Hg10 mi
1:15 AM36 °FClear.No wind81%29.96 "Hg10 mi
12:55 AM36 °FClear.3 mph81%29.97 "Hg10 mi
12:35 AM37 °FClear.5 mph75%29.96 "Hg10 mi
12:15 AM37 °FClear.3 mph75%29.96 "Hg10 mi
11:55 PM
Mon, Mar 30
37 °FClear.No wind75%29.97 "Hg10 mi
11:35 PM37 °FClear.No wind75%29.97 "Hg10 mi
11:15 PM37 °FClear.No wind81%29.97 "Hg10 mi
10:55 PM39 °FClear.No wind70%29.97 "Hg10 mi
10:35 PM43 °FClear.No wind57%29.98 "Hg10 mi
9:45 PM46 °FClear.No wind37%29.97 "Hg10 mi
8:45 PM52 °FPassing clouds.7 mph30%29.95 "Hg10 mi
6:45 PM61 °FSunny.14 mph23%29.88 "Hg10 mi
5:45 PM63 °FSunny.18 mph22%29.86 "Hg10 mi
4:45 PM63 °FPassing clouds.16 mph24%29.86 "Hg10 mi
3:45 PM63 °FSunny.15 mph24%29.85 "Hg10 mi
2:55 PM63 °FSunny.17 mph24%29.86 "Hg10 mi
1:50 PM59 °FScattered clouds.10 mph39%29.88 "Hg10 mi
12:45 PM57 °FPartly sunny.10 mph41%29.90 "Hg10 mi
11:55 AM54 °FMore clouds than sun.9 mph41%29.91 "Hg10 mi
9:55 AM48 °FPartly sunny.5 mph40%29.92 "Hg10 mi
8:50 AM46 °FOvercast.6 mph40%29.93 "Hg10 mi
7:45 AM45 °FOvercast.6 mph39%29.93 "Hg10 mi
6:45 AM45 °FMostly cloudy.6 mph37%29.94 "Hg10 mi
6:30 AM45 °FOvercast.6 mph37%29.94 "Hg10 mi
5:55 AM45 °FOvercast.7 mph37%29.95 "Hg10 mi
5:35 AM45 °FMostly cloudy.7 mph37%29.95 "Hg10 mi
5:15 AM45 °FOvercast.6 mph37%29.96 "Hg10 mi
4:55 AM43 °FMostly cloudy.7 mph42%29.97 "Hg10 mi
4:35 AM41 °FOvercast.7 mph57%29.99 "Hg10 mi
4:15 AM41 °FMostly cloudy.5 mph53%30.01 "Hg10 mi
Weather by CustomWeather, © 2015

See weather overviewHow to use our weather pages